Simultaneous Nadir Overpasses (SNOs) Predictions

Prediction of SNOs near equator between AQUA and NPP Satellite Orbit:

Table of predicted SNOs near equator for the next 14.0 days since TLE Epoch: 11/10/2012
Index Date (AQUA) Time (AQUA) AQUA Lat,Lon Date (NPP) Time (NPP) NPP Lat,Lon Distance(km) Time Diff (sec)
1 11/10/2012 09:30:21 -3.18,-119.24 11/10/2012 09:21:12 -3.00,-120.00 86.50 549
2 11/13/2012 01:05:11 29.95,-177.24 11/13/2012 00:55:11 30.29,-178.16 96.21 600
3 11/13/2012 01:47:03 -2.77, -3.37 11/13/2012 01:38:00 -2.60, -4.14 88.84 543
4 11/15/2012 18:04:21 -3.44, 112.21 11/15/2012 17:55:07 -3.26, 111.47 84.41 554
5 11/18/2012 10:22:13 -5.11,-132.49 11/18/2012 10:12:31 -4.94,-133.13 73.16 582
6 11/21/2012 03:28:57 3.33, 151.08 11/21/2012 03:19:45 3.18, 150.33 84.80 552
7 11/23/2012 19:54:17 29.99, -99.53 11/23/2012 19:44:17 30.06,-100.39 82.94 600
8 11/23/2012 20:36:05 -2.51, 74.41 11/23/2012 20:27:06 -2.36, 73.61 89.77 539




NCC Satellite Simultaneous Nadir Overpasses (SNOs) Prediction Service
